Weather History for Tri-Cities, TN

Change the Weather History Date:

Tuesday, December 3, 2013

  Actual Average Record
Temperature  
Mean Temperature 52 °F 41 °F  
Max Temperature 62 °F 52 °F 76 °F (1982)
Min Temperature 42 °F 30 °F 11 °F (1979)
Degree Days  
Heating Degree Days 13 24  
Month to date heating degree days 60 72  
Since 1 July heating degree days 951 958  
Cooling Degree Days 0 0  
Month to date cooling degree days 0 0  
Year to date cooling degree days 1003 981  
Growing Degree Days 2 (Base 50)    
Moisture  
Dew Point 41 °F    
Average Humidity 70    
Maximum Humidity 89    
Minimum Humidity 51    
Precipitation  
Precipitation 0.01 in 0.11 in 1.42 in (1948)
Month to date precipitation 0.01 0.34  
Year to date precipitation 51.35 37.98  
Snow  
Snow 0.00 in 0.00 in - ()
Month to date snowfall 0.0 0.1  
Since 1 July snowfall 1.4 0.4  
Snow Depth 0.00 in    
Sea Level Pressure  
Sea Level Pressure 29.85 in    
Wind  
Wind Speed 1 mph (NNE)    
Max Wind Speed 5 mph    
Max Gust Speed 7 mph    
Visibility 9 miles    
Events      
T = Trace of Precipitation, MM = Missing Value Source: NWS Daily Summary

Daily Weather History Graph

Daily Weather History Graph

Search for Another Location

Airport:

Trip Planner

Search our weather history database for the weather conditions in past years. The results will help you decide how hot, cold, wet, or windy it might be!

Date:

Astronomy

Dec. 03, 2013 Rise Set
Actual Time 7:24 AM EST 5:14 PM EST
Civil Twilight 6:56 AM EST 5:42 PM EST
Nautical Twilight 6:24 AM EST 6:14 PM EST
Astronomical Twilight 5:53 AM EST 6:45 PM EST
Moon 7:53 AM EST (12/3) 6:15 PM EST (12/3)
Length of Visible Light 10h 46m
Length of Day
9h 49m
New Moon, 1% of the Moon is Illuminated
Dec 3
New Moon
Dec 9
First Quarter
Dec 17
Full
Dec 25
Last Quarter
Jan 1
New

Hourly Weather History & Observations

Time (EST) Temp. Windchill Dew Point Humidity Pressure Visibility Wind Dir Wind Speed Gust Speed Precip Events Conditions
12:53 AM 44.1 °F - 37.0 °F 76% 29.82 in 10.0 mi Calm Calm - N/A   Mostly Cloudy
1:53 AM 42.1 °F 40.2 °F 37.0 °F 82% 29.82 in 8.0 mi NNW 3.5 mph - N/A   Overcast
2:53 AM 43.0 °F - 37.9 °F 82% 29.82 in 9.0 mi Calm Calm - N/A   Overcast
3:53 AM 43.0 °F - 39.0 °F 86% 29.84 in 7.0 mi Calm Calm - 0.01 in   Overcast
4:21 AM 43.0 °F - 39.0 °F 86% 29.85 in 7.0 mi Calm Calm - N/A   Overcast
4:53 AM 43.0 °F - 39.0 °F 86% 29.83 in 8.0 mi Calm Calm - N/A   Overcast
5:53 AM 44.1 °F - 39.0 °F 82% 29.86 in 8.0 mi Calm Calm - N/A   Overcast
6:53 AM 44.1 °F - 39.9 °F 85% 29.85 in 7.0 mi Calm Calm - N/A   Overcast
7:53 AM 44.1 °F - 39.0 °F 82% 29.86 in 10.0 mi Calm Calm - N/A   Overcast
8:53 AM 45.0 °F - 39.0 °F 80% 29.86 in 10.0 mi Calm Calm - N/A   Overcast
9:49 AM 48.2 °F - 39.2 °F 71% 29.90 in 10.0 mi Calm Calm - N/A   Overcast
9:53 AM 48.0 °F - 39.9 °F 74% 29.88 in 10.0 mi NNE 4.6 mph - N/A   Overcast
10:53 AM 50.0 °F - 39.9 °F 68% 29.88 in 10.0 mi Calm Calm - N/A   Overcast
11:53 AM 55.0 °F - 42.1 °F 62% 29.86 in 10.0 mi ESE 3.5 mph - N/A   Scattered Clouds
12:53 PM 59.0 °F - 43.0 °F 55% 29.82 in 10.0 mi Calm Calm - N/A   Scattered Clouds
1:53 PM 60.1 °F - 43.0 °F 53% 29.82 in 10.0 mi Calm Calm - N/A   Overcast
2:53 PM 61.0 °F - 43.0 °F 52% 29.81 in 10.0 mi Calm Calm - N/A   Overcast
3:53 PM 60.1 °F - 43.0 °F 53% 29.81 in 10.0 mi ENE 3.5 mph - N/A   Overcast
4:53 PM 59.0 °F - 43.0 °F 55% 29.82 in 10.0 mi Calm Calm - N/A   Overcast
5:53 PM 55.9 °F - 44.1 °F 64% 29.83 in 10.0 mi Calm Calm - N/A   Overcast
6:53 PM 52.0 °F - 43.0 °F 71% 29.84 in 10.0 mi North 3.5 mph - N/A   Mostly Cloudy
7:53 PM 48.9 °F - 42.1 °F 77% 29.84 in 10.0 mi Calm Calm - N/A   Scattered Clouds
8:53 PM 45.0 °F - 39.9 °F 82% 29.85 in 10.0 mi Calm Calm - N/A   Partly Cloudy
9:53 PM 48.0 °F - 43.0 °F 83% 29.87 in 10.0 mi Calm Calm - N/A   Mostly Cloudy
10:53 PM 48.0 °F - 43.0 °F 83% 29.87 in 10.0 mi Calm Calm - N/A   Mostly Cloudy
11:53 PM 46.0 °F - 41.0 °F 83% 29.87 in 10.0 mi Calm Calm - N/A   Scattered Clouds